| time (UTC) | temp F | wind direction | speed knots | gust knots | rain 1hr in | rain 24hr in | rain mn in | humidity % | barometer mb |
| 20260506033603 | 46 | 57 | 0.9 | 6.1 | 0.00 | 0.00 | 0.00 | 79 | 1041.0 |
| 20260506032703 | 46 | 29 | 0.0 | 7.0 | 0.00 | 0.00 | 0.00 | 79 | 1041.0 |
| 20260506031803 | 46 | 60 | 4.3 | 7.0 | 0.00 | 0.00 | 0.00 | 79 | 1041.1 |
| 20260506030903 | 47 | 63 | 1.7 | 5.2 | 0.00 | 0.00 | 0.00 | 78 | 1041.2 |
| 20260506030003 | 47 | 60 | 2.6 | 7.0 | 0.00 | 0.00 | 0.00 | 78 | 1041.1 |
| 20260506025403 | 47 | 33 | 0.9 | 5.2 | 0.00 | 0.00 | 0.00 | 78 | 1041.1 |
| 20260506024503 | 47 | 55 | 0.9 | 3.5 | 0.00 | 0.00 | 0.00 | 78 | 1041.1 |
| 20260506023603 | 47 | 39 | 1.7 | 5.2 | 0.00 | 0.00 | 0.00 | 78 | 1041.4 |
| 20260506022914 | 47 | 36 | 0.9 | 5.2 | 0.00 | 0.00 | 0.00 | 78 | 1041.3 |
| 20260506021803 | 48 | 61 | 1.7 | 5.2 | 0.00 | 0.00 | 0.00 | 77 | 1041.1 |
| 20260506020903 | 48 | 49 | 1.7 | 9.6 | 0.00 | 0.00 | 0.00 | 77 | 1041.2 |
| 20260506020216 | 48 | 45 | 0.9 | 7.8 | 0.00 | 0.00 | 0.00 | 77 | 1041.2 |
| 20260506015403 | 48 | 43 | 1.7 | 7.8 | 0.00 | 0.00 | 0.00 | 76 | 1041.3 |
| 20260506014715 | 48 | 50 | 1.7 | 7.8 | 0.00 | 0.00 | 0.00 | 76 | 1041.2 |
| 20260506013603 | 48 | 46 | 1.7 | 6.1 | 0.00 | 0.00 | 0.00 | 76 | 1041.3 |
| 20260506012708 | 48 | 54 | 1.7 | 5.2 | 0.00 | 0.00 | 0.00 | 77 | 1041.4 |
| 20260506011803 | 49 | 13 | 0.0 | 3.5 | 0.00 | 0.00 | 0.00 | 79 | 1041.6 |
| 20260506010903 | 49 | 40 | 0.9 | 3.5 | 0.00 | 0.00 | 0.00 | 79 | 1041.5 |
| 20260506010003 | 49 | 36 | 1.7 | 3.5 | 0.00 | 0.00 | 0.00 | 80 | 1041.3 |
| 20260506005613 | 49 | 21 | 2.6 | 3.5 | 0.00 | 0.00 | 0.00 | 80 | 1041.4 |
| 20260506004504 | 49 | 55 | 1.7 | 5.2 | 0.00 | 0.00 | 0.00 | 80 | 1041.5 |
| 20260506003603 | 49 | 58 | 0.0 | 3.5 | 0.00 | 0.00 | 0.00 | 80 | 1041.3 |
| 20260506002703 | 49 | 47 | 0.0 | 3.5 | 0.00 | 0.00 | 0.00 | 79 | 1041.5 |
| 20260506001803 | 49 | 53 | 1.7 | 3.5 | 0.00 | 0.00 | 0.00 | 79 | 1041.6 |
| 20260506000903 | 49 | 7 | 0.0 | 1.7 | 0.00 | 0.00 | 0.00 | 78 | 1041.5 |
| 20260506000219 | 49 | 22 | 0.9 | 1.7 | 0.00 | 0.00 | 0.00 | 77 | 1041.5 |
| 20260505235403 | 49 | 68 | 0.0 | 5.2 | 0.00 | 0.00 | 0.00 | 76 | 1041.6 |
| 20260505234503 | 49 | 41 | 1.7 | 7.0 | 0.00 | 0.00 | 0.00 | 76 | 1041.6 |
| 20260505233603 | 50 | 58 | 0.9 | 7.0 | 0.00 | 0.00 | 0.00 | 75 | 1041.7 |
| 20260505232916 | 50 | 52 | 3.5 | 5.2 | 0.00 | 0.00 | 0.00 | 74 | 1041.4 |
| 20260505232013 | 50 | 57 | 1.7 | 7.0 | 0.00 | 0.00 | 0.00 | 74 | 1041.4 |
| 20260505230903 | 50 | 53 | 2.6 | 7.0 | 0.00 | 0.00 | 0.00 | 73 | 1041.6 |
| 20260505230003 | 50 | 46 | 2.6 | 7.8 | 0.00 | 0.00 | 0.00 | 74 | 1041.7 |
| 20260505225403 | 50 | 47 | 0.0 | 7.8 | 0.00 | 0.00 | 0.00 | 74 | 1041.6 |
| 20260505224717 | 51 | 32 | 0.9 | 6.1 | 0.00 | 0.00 | 0.00 | 74 | 1041.6 |
| 20260505223603 | 51 | 56 | 0.9 | 6.1 | 0.00 | 0.00 | 0.00 | 74 | 1041.5 |
| 20260505222703 | 51 | 50 | 2.6 | 9.6 | 0.00 | 0.00 | 0.00 | 73 | 1041.6 |
| 20260505221803 | 51 | 45 | 3.5 | 9.6 | 0.00 | 0.00 | 0.00 | 72 | 1041.2 |
| 20260505221116 | 51 | 51 | 6.1 | 9.6 | 0.00 | 0.00 | 0.00 | 71 | 1041.5 |
| 20260505220003 | 52 | 51 | 1.7 | 7.8 | 0.00 | 0.00 | 0.00 | 70 | 1041.7 |
| 20260505215615 | 52 | 53 | 1.7 | 7.8 | 0.00 | 0.00 | 0.00 | 70 | 1041.5 |
| 20260505214503 | 52 | 64 | 1.7 | 7.0 | 0.00 | 0.00 | 0.00 | 78 | 1041.2 |
| 20260505213814 | 52 | 70 | 0.9 | 6.1 | 0.00 | 0.00 | 0.00 | 77 | 1041.3 |
| 20260505212703 | 53 | 47 | 0.9 | 7.0 | 0.00 | 0.00 | 0.00 | 76 | 1041.3 |
| 20260505211803 | 53 | 58 | 0.9 | 7.0 | 0.00 | 0.00 | 0.00 | 75 | 1041.3 |
| 20260505210903 | 53 | 57 | 3.5 | 7.0 | 0.00 | 0.00 | 0.00 | 74 | 1041.3 |
| 20260505210003 | 53 | 51 | 0.9 | 9.6 | 0.00 | 0.00 | 0.00 | 73 | 1041.2 |
| 20260505205403 | 53 | 55 | 4.3 | 9.6 | 0.00 | 0.00 | 0.00 | 73 | 1040.9 |
| 20260505204503 | 54 | 51 | 0.9 | 7.8 | 0.00 | 0.00 | 0.00 | 71 | 1041.2 |
| 20260505203603 | 54 | 55 | 1.7 | 9.6 | 0.00 | 0.00 | 0.00 | 69 | 1041.0 |
| 20260505202703 | 55 | 48 | 3.5 | 9.6 | 0.00 | 0.00 | 0.00 | 66 | 1041.0 |
| 20260505202020 | 55 | 61 | 0.0 | 7.0 | 0.00 | 0.00 | 0.00 | 65 | 1040.9 |
| 20260505200903 | 55 | 68 | 1.7 | 6.1 | 0.00 | 0.00 | 0.00 | 68 | 1040.5 |
| 20260505200003 | 55 | 35 | 0.9 | 6.1 | 0.00 | 0.00 | 0.00 | 67 | 1040.7 |
| 20260505195403 | 55 | 43 | 0.9 | 6.1 | 0.00 | 0.00 | 0.00 | 67 | 1040.5 |
| 20260505194503 | 55 | 360 | 1.7 | 7.8 | 0.00 | 0.00 | 0.00 | 66 | 1040.4 |
| 20260505193603 | 55 | 43 | 1.7 | 7.0 | 0.00 | 0.00 | 0.00 | 66 | 1040.1 |
| 20260505192703 | 55 | 59 | 3.5 | 7.0 | 0.00 | 0.00 | 0.00 | 65 | 1040.2 |
| 20260505191803 | 56 | 43 | 1.7 | 7.0 | 0.00 | 0.00 | 0.00 | 65 | 1040.0 |
| 20260505190903 | 56 | 60 | 2.6 | 7.8 | 0.00 | 0.00 | 0.00 | 64 | 1040.1 |
| 20260505190008 | 56 | 59 | 1.7 | 7.8 | 0.00 | 0.00 | 0.00 | 64 | 1040.0 |
| 20260505185403 | 56 | 45 | 0.9 | 7.0 | 0.00 | 0.00 | 0.00 | 64 | 1039.8 |
| 20260505184503 | 57 | 25 | 0.9 | 6.1 | 0.00 | 0.00 | 0.00 | 64 | 1040.0 |
| 20260505183822 | 57 | 39 | 2.6 | 7.0 | 0.00 | 0.00 | 0.00 | 64 | 1039.8 |
| 20260505182914 | 57 | 45 | 1.7 | 7.0 | 0.00 | 0.00 | 0.00 | 64 | 1039.8 |
| 20260505181803 | 58 | 12 | 0.9 | 3.5 | 0.00 | 0.00 | 0.00 | 60 | 1039.7 |
| 20260505180903 | 58 | 43 | 0.0 | 5.2 | 0.00 | 0.00 | 0.00 | 58 | 1039.6 |
| 20260505180216 | 58 | 35 | 1.7 | 6.1 | 0.00 | 0.00 | 0.00 | 57 | 1039.5 |
| 20260505175403 | 59 | 27 | 0.9 | 6.1 | 0.00 | 0.00 | 0.00 | 56 | 1039.9 |
| 20260505174503 | 59 | 24 | 0.9 | 6.1 | 0.00 | 0.00 | 0.00 | 56 | 1039.8 |
| 20260505173603 | 59 | 51 | 0.9 | 3.5 | 0.00 | 0.00 | 0.00 | 55 | 1039.6 |
| 20260505172914 | 60 | 46 | 1.7 | 3.5 | 0.00 | 0.00 | 0.00 | 54 | 1039.6 |
| 20260505171803 | 60 | 3 | 0.0 | 3.5 | 0.00 | 0.00 | 0.00 | 54 | 1039.6 |
| 20260505170903 | 60 | 18 | 0.9 | 3.5 | 0.00 | 0.00 | 0.00 | 54 | 1039.8 |
| 20260505170003 | 60 | 41 | 1.7 | 3.5 | 0.00 | 0.00 | 0.00 | 54 | 1039.7 |
| 20260505165403 | 60 | 23 | 0.9 | 1.7 | 0.00 | 0.00 | 0.00 | 53 | 1039.8 |
| 20260505164503 | 60 | 54 | 0.9 | 5.2 | 0.00 | 0.00 | 0.00 | 52 | 1039.9 |
| 20260505163603 | 60 | 25 | 1.7 | 3.5 | 0.00 | 0.00 | 0.00 | 51 | 1039.9 |
| 20260505162703 | 60 | 47 | 0.9 | 7.0 | 0.00 | 0.00 | 0.00 | 52 | 1039.9 |
| 20260505161803 | 60 | 40 | 0.9 | 1.7 | 0.00 | 0.00 | 0.00 | 51 | 1039.8 |
| 20260505160903 | 61 | 47 | 0.9 | 3.5 | 0.00 | 0.00 | 0.00 | 49 | 1039.7 |
| 20260505152703 | 62 | 37 | 0.0 | 3.5 | 0.00 | 0.00 | 0.00 | 47 | 1039.7 |
| 20260505151803 | 62 | 30 | 0.0 | 5.2 | 0.00 | 0.00 | 0.00 | 46 | 1039.8 |
| 20260505150903 | 62 | 55 | 1.7 | 6.1 | 0.00 | 0.00 | 0.00 | 46 | 1039.9 |
| 20260505124503 | 59 | 29 | 1.7 | 3.5 | 0.00 | 0.00 | 0.00 | 56 | 1040.3 |
| 20260505123815 | 59 | 2 | 1.7 | 5.2 | 0.00 | 0.00 | 0.00 | 57 | 1040.9 |
| 20260505122703 | 59 | 57 | 0.9 | 5.2 | 0.00 | 0.00 | 0.00 | 58 | 1040.4 |
| 20260505121803 | 59 | 38 | 1.7 | 6.1 | 0.00 | 0.00 | 0.00 | 56 | 1040.4 |
| 20260505120903 | 60 | 32 | 3.5 | 6.1 | 0.00 | 0.00 | 0.00 | 55 | 1040.7 |
| 20260505120004 | 60 | 23 | 1.7 | 5.2 | 0.00 | 0.00 | 0.00 | 54 | 1040.4 |
| 20260505115616 | 60 | 55 | 1.7 | 6.1 | 0.00 | 0.00 | 0.00 | 54 | 1040.5 |
| 20260505114716 | 61 | 21 | 1.7 | 3.5 | 0.00 | 0.00 | 0.00 | 56 | 1040.5 |
| 20260505113816 | 61 | 8 | 0.0 | 6.1 | 0.00 | 0.00 | 0.00 | 52 | 1040.5 |
| 20260505112703 | 63 | 92 | 1.7 | 5.2 | 0.00 | 0.00 | 0.00 | 49 | 1040.4 |
| 20260505111803 | 61 | 49 | 2.6 | 7.8 | 0.00 | 0.00 | 0.00 | 52 | 1040.9 |
| 20260505110903 | 61 | 45 | 1.7 | 7.0 | 0.00 | 0.00 | 0.00 | 54 | 1040.5 |
| 20260505101808 | 59 | 44 | 1.7 | 7.8 | 0.00 | 0.00 | 0.00 | 59 | 1041.3 |
| 20260505100903 | 60 | 43 | 0.0 | 6.1 | 0.00 | 0.00 | 0.00 | 59 | 1041.1 |
| 20260505100216 | 59 | 56 | 1.7 | 6.1 | 0.00 | 0.00 | 0.00 | 62 | 1041.3 |
| 20260505095403 | 59 | 47 | 0.9 | 7.8 | 0.00 | 0.00 | 0.00 | 61 | 1041.5 |
| 20260505094503 | 59 | 3 | 1.7 | 3.5 | 0.00 | 0.00 | 0.00 | 61 | 1041.6 |
| 20260505093603 | 56 | 42 | 1.7 | 3.5 | 0.00 | 0.00 | 0.00 | 69 | 1041.6 |
| 20260505092708 | 55 | 51 | 1.7 | 7.8 | 0.00 | 0.00 | 0.00 | 70 | 1041.5 |
| 20260505091803 | 56 | 44 | 1.7 | 3.5 | 0.00 | 0.00 | 0.00 | 69 | 1041.7 |
| 20260505090903 | 54 | 53 | 1.7 | 7.0 | 0.00 | 0.00 | 0.00 | 73 | 1041.8 |
| 20260505090003 | 54 | 68 | 0.9 | 3.5 | 0.00 | 0.00 | 0.00 | 74 | 1041.6 |
| 20260505085403 | 54 | 64 | 0.0 | 5.2 | 0.00 | 0.00 | 0.00 | 74 | 1041.5 |
| 20260505084503 | 54 | 47 | 2.6 | 5.2 | 0.00 | 0.00 | 0.00 | 75 | 1041.7 |
| 20260505083603 | 54 | 58 | 1.7 | 6.1 | 0.00 | 0.00 | 0.00 | 76 | 1041.9 |
| 20260505082703 | 55 | 52 | 1.7 | 6.1 | 0.00 | 0.00 | 0.00 | 76 | 1041.8 |
| 20260505081803 | 55 | 41 | 0.9 | 5.2 | 0.00 | 0.00 | 0.00 | 75 | 1041.6 |
| 20260505080903 | 53 | 67 | 1.7 | 7.8 | 0.00 | 0.00 | 0.00 | 78 | 1041.5 |
| 20260505080003 | 53 | 49 | 1.7 | 3.5 | 0.00 | 0.00 | 0.00 | 80 | 1041.8 |
| 20260505075403 | 53 | 58 | 1.7 | 3.5 | 0.00 | 0.00 | 0.00 | 81 | 1041.7 |
| 20260505074503 | 52 | 57 | 0.9 | 3.5 | 0.00 | 0.00 | 0.00 | 82 | 1041.6 |
| 20260505073813 | 52 | 58 | 1.7 | 1.7 | 0.00 | 0.00 | 0.00 | 82 | 1041.7 |
| 20260505072703 | 52 | 52 | 0.0 | 5.2 | 0.00 | 0.00 | 0.00 | 83 | 1041.6 |
| 20260505071803 | 52 | 45 | 2.6 | 5.2 | 0.00 | 0.00 | 0.00 | 83 | 1041.8 |
| 20260505070903 | 52 | 71 | 0.0 | 3.5 | 0.00 | 0.00 | 0.00 | 85 | 1041.7 |
| 20260505070003 | 51 | 41 | 0.9 | 3.5 | 0.00 | 0.00 | 0.00 | 85 | 1041.8 |
| 20260505065403 | 51 | 342 | 0.0 | 1.7 | 0.00 | 0.00 | 0.00 | 86 | 1041.6 |
| 20260505064503 | 51 | 22 | 0.0 | 1.7 | 0.00 | 0.00 | 0.00 | 86 | 1041.8 |
| 20260505063603 | 51 | 359 | 0.0 | 1.7 | 0.00 | 0.00 | 0.00 | 87 | 1041.9 |
| 20260505062703 | 51 | 359 | 0.0 | 1.7 | 0.00 | 0.00 | 0.00 | 86 | 1041.7 |
| 20260505061803 | 50 | 28 | 0.0 | 1.7 | 0.00 | 0.00 | 0.00 | 86 | 1041.7 |
| 20260505060903 | 50 | 22 | 0.0 | 1.7 | 0.00 | 0.00 | 0.00 | 86 | 1041.9 |
| 20260505060213 | 50 | 22 | 0.0 | 1.7 | 0.00 | 0.00 | 0.00 | 87 | 1041.8 |
| 20260505055403 | 50 | 21 | 0.0 | 1.7 | 0.00 | 0.00 | 0.00 | 87 | 1041.9 |
| 20260505054503 | 50 | 45 | 0.0 | 1.7 | 0.00 | 0.00 | 0.00 | 87 | 1042.0 |
| 20260505053603 | 50 | 67 | 0.0 | 1.7 | 0.00 | 0.00 | 0.00 | 87 | 1041.9 |
| 20260505052917 | 49 | 67 | 0.0 | 1.7 | 0.00 | 0.00 | 0.00 | 88 | 1041.9 |
| 20260505051803 | 49 | 67 | 0.0 | 1.7 | 0.00 | 0.00 | 0.00 | 88 | 1042.0 |
| 20260505050903 | 49 | 67 | 0.0 | 1.7 | 0.00 | 0.00 | 0.00 | 89 | 1042.0 |
| 20260505040903 | 49 | 57 | 0.9 | 1.7 | 0.00 | 0.00 | 0.00 | 89 | 1042.2 |
| 20260505040004 | 49 | 67 | 0.0 | 1.7 | 0.00 | 0.00 | 0.00 | 89 | 1042.0 |
| 20260505035403 | 49 | 67 | 0.0 | 1.7 | 0.00 | 0.00 | 0.00 | 89 | 1042.1 |
| 20260505034713 | 49 | 0 | 0.0 | 0.0 | 0.00 | 0.00 | 0.00 | 90 | 1042.1 |